#timestamp,LO_Frequency,Hit,StdDev 
1521900015.1,286047002.2,N
1521900035.8,286047002.2,N
1521900055.7,286046999.8,N
1521900075.5,286047000.7,N
1521900095.4,286047000.9,N
1521900115.2,286047000.2,N
1521900135.0,286047000.9,N
1521900135.9,286047000.9,N
1521900155.8,286046998.4,N
1521900175.6,286046996.9,N
1521900195.5,286046997.1,N
1521900215.3,286046996.6,N
1521900235.1,286046996.6,N
1521900255.9,286046999.0,N
1521900275.7,286047000.8,N
1521900295.6,286046999.3,N
1521900315.4,286046998.7,N
1521900335.2,286047001.0,N
1521900355.1,286047000.4,N
1521900356.0,286047000.4,N
1521900375.8,286047000.0,N
1521900395.7,286047000.6,N
1521900415.5,286046998.5,N
1521900435.3,286047000.4,N
1521900455.2,286046998.2,N
1521900475.0,286046996.5,N
1521900475.9,286046996.5,N
1521900495.7,286046999.1,N
1521900515.6,286046998.3,N
1521900535.4,286046998.5,N
1521900555.3,286047001.2,N
1521900575.1,286047000.8,N
1521900576.0,286047000.8,N
1521900595.8,286047001.0,N
1521900615.7,286046998.8,N
1521900635.5,286046999.8,N
1521900655.3,286047000.1,N
1521900675.2,286047002.0,N
1521900695.0,286047004.1,N
1521900695.9,286047004.1,N
1521900715.8,286047001.3,N
1521900735.6,286047001.6,N
1521900755.4,286047001.9,N
1521900775.3,286047002.6,N
1521900795.1,286047002.4,N
1521900815.8,286047002.6,N
1521900835.7,286047001.9,N
1521900855.5,286047001.8,N
1521900875.4,286047002.3,N
1521900895.2,286047000.0,N
1521900915.0,286047002.6,N
1521900915.9,286047002.6,N
1521900935.8,286046999.7,N
1521900955.6,286047001.2,N
1521900975.5,286046998.8,N
1521900995.3,286046998.3,N
1521901015.1,286046998.2,N
1521901035.9,286046998.2,N
1521901055.7,286046998.8,N
1521901075.5,286046998.8,N
1521901095.4,286046998.5,N
1521901115.2,286046998.4,N
1521901135.1,286047000.6,N
1521901136.0,286047000.6,N
1521901155.8,286047000.8,N
1521901175.6,286046998.6,N
1521901195.5,286047001.1,N
1521901215.3,286047000.8,N
1521901235.2,286046999.7,N
1521901255.9,286046999.9,N
1521901275.7,286047001.1,N
1521901295.6,286047002.2,N
1521901315.4,286047000.3,N
1521901335.3,286046999.8,N
1521901355.1,286046999.8,N
1521901356.0,286046999.8,N
1521901375.8,286047000.5,N
1521901395.7,286047002.0,N
1521901415.5,286047002.7,N
1521901435.3,286047002.8,N
1521901455.2,286047001.6,N
1521901475.0,286047002.0,N
1521901475.9,286047002.0,N
1521901495.8,286047001.5,N
1521901515.6,286047002.6,N
1521901535.4,286047000.6,N
1521901555.3,286047000.8,N
1521901575.1,286047000.6,N
1521901595.8,286046998.7,N
1521901615.7,286047000.3,N
1521901635.5,286046998.6,N
1521901655.4,286047000.8,N
1521901675.2,286047000.7,N
1521901695.0,286046998.7,N
1521901695.9,286046998.7,N
1521901715.8,286046998.7,N
1521901735.6,286047000.4,N
1521901755.5,286047000.2,N
1521901775.3,286046999.8,N
1521901795.1,286047000.0,N
1521901815.9,286047000.2,N
1521901835.7,286047000.1,N
1521901855.5,286047000.0,N
1521901875.4,286047002.4,N
1521901895.2,286046999.8,N
1521901915.1,286047002.7,N
1521901916.0,286047002.7,N
1521901935.8,286047000.3,N
1521901955.6,286047001.1,N
1521901975.5,286047000.7,N
1521901995.3,286047000.7,N
1521902015.2,286046998.7,N
1521902035.9,286046998.8,N
1521902055.7,286046999.1,N
1521902075.6,286046999.1,N
1521902095.4,286046999.2,N
1521902115.3,286046998.3,N
1521902135.1,286046998.1,N
1521902136.0,286046998.1,N
1521902155.8,286047000.1,N
1521902175.7,286046998.5,N
1521902195.5,286047000.8,N
1521902215.3,286047000.6,N
1521902235.2,286046998.2,N
1521902255.0,286046998.1,N
1521902255.9,286046998.1,N
1521902275.8,286046999.0,N
1521902295.6,286047001.0,N
1521902315.4,286047000.3,N
1521902335.3,286047000.1,N
1521902355.1,286047000.3,N
1521902375.8,286047000.9,N
1521902395.7,286046999.9,N
1521902415.5,286046998.1,N
1521902435.4,286046998.8,N
1521902455.2,286046999.3,N
1521902475.0,286046997.9,N
1521902475.9,286046997.9,N
1521902495.8,286046995.1,Y
1521902515.6,286046995.1,P
1521902535.5,286046995.2,N
1521902555.3,286046995.3,N
1521902575.1,286046995.0,N
1521902595.9,286046996.7,N
1521902615.7,286046998.8,N
1521902635.5,286046997.2,N
1521902655.4,286046995.8,N
1521902675.2,286046995.4,N
1521902695.1,286046996.4,N
1521902696.0,286046996.4,N
1521902715.8,286046994.1,Y
1521902735.6,286046996.5,P
1521902755.5,286046997.2,P
1521902775.3,286046997.5,P
1521902795.2,286046997.5,Y
1521902815.9,286047001.1,P
1521902835.7,286046998.9,N
1521902855.6,286046998.7,N
1521902875.4,286046998.8,N
1521902895.2,286046998.5,N
1521902915.1,286047000.7,N
1521902916.0,286047000.7,N
1521902935.8,286047002.8,N
1521902955.7,286046999.7,N
1521902975.5,286047000.6,N
1521902995.3,286047000.3,N
1521903015.2,286047001.1,N
1521903035.0,286046999.4,N
1521903035.9,286046999.4,N
1521903055.7,286046999.1,N
1521903075.6,286046997.7,N
1521903095.4,286046998.0,N
1521903115.3,286046996.0,N
1521903135.1,286046995.7,N
1521903136.0,286046995.7,N
1521903155.8,286046996.5,N
1521903175.7,286046996.6,N
1521903195.5,286046998.1,N
1521903215.3,286047000.4,N
1521903235.2,286047000.1,N
1521903255.0,286047000.1,N
1521903255.9,286047000.1,N
1521903275.8,286047000.3,N
1521903295.6,286047001.2,N
1521903315.4,286046996.7,N
1521903335.3,286046997.9,N
1521903355.1,286046997.5,N
1521903375.8,286046998.9,N
1521903395.7,286046996.6,N
1521903415.5,286046998.7,N
1521903435.4,286046999.2,N
1521903455.2,286046998.3,N
1521903475.0,286046998.2,N
1521903475.9,286046998.2,N
1521903495.8,286047000.0,N
1521903515.6,286046998.7,N
1521903535.5,286046996.7,N
1521903555.3,286046997.0,N
1521903575.1,286046997.3,N
1521903595.9,286046997.5,N
